Regional Weather Roundup
Issued by NWS Sterling, VA

Home | Current Version | Previous Version | Text Only | Print | Product List | Glossary Off
Versions: 1 2 3 4 5 6 7 8 9 10 11 12 13 14 15 16 17 18 19 20 21 22 23 24 25 26 27

000
ASUS41 KLWX 281910
RWRLWX

REGIONAL WEATHER ROUNDUP
NATIONAL WEATHER SERVICE BALTIMORE MD/WASHINGTON DC
300 PM EDT WED SEP 28 2016

Note: "FAIR" indicates few or no clouds below 12,000 feet
with no significant weather and/or obstructions to visibility.
 TC=TEMPERATURE CELSIUS

 * =Non NWS site. Station does not report precipitation (e.g. rain,
    snow, etc.), thunder, or fog.

DCZ001-MDZ009-015-VAZ040>042-051-053>054-282000-
WASHINGTON METRO

CITY           SKY/WX    TMP DP  RH WIND       PRES   REMARKS
WASHINGTON NAT CLOUDY    69  67  93 NE10      30.01S
DULLES         LGT RAIN  66  63  90 NE5       30.00F FOG
ANDREWS AFB    CLOUDY    68  66  94 NE8       29.99S
FT BELVOIR     CLOUDY    68  66  94 VRB1      29.98F
QUANTICO       CLOUDY    69  66  90 E7        29.99F
COLLEGE PARK*  CLOUDY    64  63  94 NE3       30.01S
LEESBURG*      HVY RAIN  64  64 100 NE3       30.02S VSB 1
GAITHERSBURG*  CLOUDY    64  61  88 NE6       30.06F

$$

MDZ006>007-011-014-282000-
BALTIMORE METRO

CITY           SKY/WX    TMP DP  RH WIND       PRES   REMARKS
BWI AIRPORT    CLOUDY    68  64  87 E14       30.01F
MD SCIENCE CTR   N/A     68  63  84 MISG      30.02F
MARTIN STATE   RAIN      70  68  94 E5        30.05R
ANNAPOLIS      CLOUDY    70  67  90 NE6       30.01S
FORT MEADE*    CLOUDY    66  63  88 NE7       30.03F

$$

MDZ012-015-019>023-282000-
MARYLAND EASTERN SHORE

CITY           SKY/WX    TMP DP  RH WIND       PRES   REMARKS
OCEAN CITY     CLOUDY    73  67  81 NE10      30.03R
SALISBURY      RAIN      70  68  93 E12       30.01S FOG
BAY BRIDGE AP* CLOUDY    72  66  83 MISG      30.01S
CAMBRIDGE*     MOSUNNY   70  66  88 E8        29.99S
EASTON*        PTSUNNY   73  66  78 E14G22    30.03F

$$

MDZ017>025-282000-
SOUTHERN MARYLAND

CITY           SKY/WX    TMP DP  RH WIND       PRES   REMARKS
PATUXENT RIVER CLOUDY    70  66  87 E16G23    29.98F
ST INIGOES     CLOUDY    71  68  90 E9        29.97F
LEONARDTOWN*   CLOUDY    70  64  83 E8        30.00F

$$

MDZ003>005-282000-
NORTH CENTRAL MARYLAND

CITY           SKY/WX    TMP DP  RH WIND       PRES   REMARKS
FREDERICK*     CLOUDY    70  64  83 E9        30.05F
HAGERSTOWN APT CLOUDY    69  55  60 E9        30.04R

$$

MDZ501>502-282000-
WESTERN MARYLAND

CITY           SKY/WX    TMP DP  RH WIND       PRES   REMARKS
OAKLAND*       CLOUDY    55  54  94 SE14G21   30.01F FOG
CUMBERLAND*    CLOUDY    68  55  64 E7        30.05S

$$

VAZ025>031-282000-
SHENANDOAH VALLEY

CITY           SKY/WX    TMP DP  RH WIND       PRES   REMARKS
WINCHESTER*    CLOUDY    66  59  77 E7        30.01S
FRONT ROYAL*   CLOUDY    64  61  88 E5        30.00S
LURAY*         CLOUDY    68  63  83 NE9       29.98F
NEW MARKET*    CLOUDY   N/A N/A N/A NE7       29.98S
STAUNTON*      CLOUDY    69  63  81 N7        29.99F
WAYNESBORO*    CLOUDY    70  64  81 SE7       29.98F

$$

WVZ021-048>050-054>055-282000-
EASTERN WEST VIRGINIA PANHANDLE

CITY           SKY/WX    TMP DP  RH WIND       PRES   REMARKS
MARTINSBURG    CLOUDY    67  58  72 E7        30.02S
PETERSBURG*    CLOUDY    66  55  69 NW6       29.99F

$$

VAZ036>039-050-282000-
CENTRAL FOOTHILLS

CITY           SKY/WX    TMP DP  RH WIND       PRES   REMARKS
CHARLOTTESVILL CLOUDY    69  63  81 NE12      29.97F HAZE
CULPEPER*      DRIZZLE   66  65  98 N5        30.00F
ORANGE*          N/A     68  68 100 N6        29.99F FOG
GORDONSVILLE*  CLOUDY    66  66 100 N6        29.96F FOG
WARRENTON*     CLOUDY    67  62  83 NE5       29.98F

$$

VAZ055>057-282000-
NORTH AND CENTRAL PIEDMONT

CITY           SKY/WX    TMP DP  RH WIND       PRES   REMARKS
FREDERICKSBRG* CLOUDY    70  70 100 E7        29.96F
STAFFORD*      CLOUDY    67  66  97 NE6       30.02S

$$

NCZ024-NYZ072-PAZ021-071-VAZ022-071-282000-
OTHER REGIONAL OBSERVATIONS

CITY           SKY/WX    TMP DP  RH WIND       PRES   REMARKS
NEW YORK CITY  PTSUNNY   68  57  68 E8G16     30.16R
PHILADELPHIA   LGT RAIN  69  64  84 E14       30.06F
PITTSBURGH     PTSUNNY   74  52  46 SE8       29.92F
ROANOKE        PTSUNNY   76  63  64 SE10      29.94F
RICHMOND       CLOUDY    74  70  87 SE7       29.93F
RALEIGH        PTSUNNY   84  68  58 S9        29.92F

$$

ANZ530>537-282000-
MARINE OBSERVATIONS

STATION/POSITION TIME  TEMP    WIND        PRES
                       AIR SEA DIR/SP/G
                 (UTC) (F)     (DEG/KT/KT) (MB)
THOMAS PT LIGHT  1900   71 73   90/ 12/ 15 1017.4S
BALT KEY BRIDGE  1848   67      40/ 12/ 14 1016.3R
COVE POINT       1848   71     140/ 20/ 25 1015.7F
LEWISETTA        1848   72 73  120/ 18/ 21 1014.4F
SOLOMONS ISLAND  1842   71 75   90/ 19/ 21   N/A
PINEY POINT      1848          110/ 17/ 20   N/A

$$





USA.gov is the U.S. government's official web portal to all federal, state and local government web resources and services.